Location: Aalen
(48.8330°N, 10.1000°E)
Time: 03:33:21
(UTC+01:00)

Envisat - Pass Details

Date: 30 November 2022
Orbit: 763 x 765 km, 98.2° (Epoch: 28 January)

Event Time Altitude Azimuth Distance (km) Brightness Sun altitude
Rises 03:51:31 0° 21° (NNE) 3,245 6.6 -38.4°
Reaches altitude 10° 03:54:04 10° 31° (NNE) 2,314 5.9 -38.0°
Enters shadow 03:56:03 21° 47° (NE) 1,688 5.2 -37.7°
